Location: ??????????
(54.7560°N, 39.1389°E)
Time: 18:09:57
(UTC+00:00)

Cosmos 1697 Rocket - Pass Details

Date: 19 May 2025
Orbit: 830 x 844 km, 71.0° (Epoch: 20 June)

Event Time Altitude Azimuth Distance (km) Brightness Sun altitude
Rises 19:35:12 0° 322° (NW) 3,408 7.6 -12.0°
Reaches altitude 10° 19:38:01 10° 310° (NW) 2,470 6.2 -12.2°
Maximum altitude 19:42:34 26° 256° (WSW) 1,619 4.3 -12.4°
Drops below altitude 10° 19:47:07 10° 202° (SSW) 2,460 4.7 -12.7°
Enters shadow 19:47:35 - 199° (SSW) 2,605 4.8 -12.7°
